Regional Weather Roundup
Issued by NWS New Orleans/Baton Rouge, LA

Home | Current Version | Previous Version | Graphics & Text | Print | Product List | Glossary On
Versions: 1 2 3 4 5 6 7 8 9 10 11 12 13 14 15 16 17 18 19 20 21 22 23 24 25 26 27 28 29 30 31 32 33 34 35 36 37 38 39 40 41 42 43 44 45 46 47 48 49 50
845
ASUS44 KLIX 220305
RWRLIX
NEW ORLEANS REGIONAL WEATHER ROUNDUP
NATIONAL WEATHER SERVICE NEW ORLEANS LA
900 PM CST FRI NOV 21 2014

NOTE: "FAIR" INDICATES FEW OR NO CLOUDS BELOW 12,000 FEET WITH NO
      SIGNIFICANT WEATHER AND/OR OBSTRUCTIONS TO VISIBILITY.
      SKY/WX - SKY CONDITION AND SIGNIFICANT WEATHER.
      TMP - AIR TEMPERATURE.     DP    - DEWPOINT TEMPERATURE.
      RH  - RELATIVE HUMIDITY.   PRES  - PRESSURE.
      HI  - HEAT INDEX.          WCI   - WIND CHILL INDEX.

*  THESE STATIONS ARE NOT NWS OR FAA STATIONS AND ARE NOT UNDER
   NWS QUALITY CONTROL.

LAZ038-040-048-061>063-065>067-069-220400-
SOUTHEAST LOUISIANA

CITY           SKY/WX    TMP DP  RH WIND       PRES   REMARKS
N.O. AUDUBON     N/A     58  53  81 MISG        N/A
N.O. INTL ARPT PTCLDY    60  52  74 E7        30.26F
N.O. LAKEFRONT CLEAR     62  51  67 E13       30.27S
N.O. DOWNTOWN*   N/A     61  48  63 NE3       30.27F
SLIDELL        CLEAR     52  48  86 CALM      30.27S
BATON ROUGE    PTCLDY    58  52  80 E9        30.27S
BOOTHVILLE     CLEAR     62  54  74 E9        30.26S
BELLE CHASSE   PTCLDY    56  50  80 E8        30.25F
BOGALUSA*        N/A     49  44  81 CALM      30.30R
NEW ROADS*     MOCLDY    60  51  73 E7        30.27R
GONZALES*        N/A     57  54  90 CALM      30.27S
HAMMOND*       PTCLDY    57  50  77 E3        30.29S
HOUMA*         CLEAR     56  49  77 E6        30.25S
PORT FOURCHON* CLEAR     64  54  68 E13       30.27F

$$

MSZ070-080>082-220400-
SOUTHERN MISSISSIPPI

CITY           SKY/WX    TMP DP  RH WIND       PRES   REMARKS
MCCOMB         PTCLDY    57  44  62 SE8       30.28S
GULFPORT       CLEAR     54  49  83 E5        30.28F
BILOXI         CLEAR     54  49  84 E5        30.28F
PASCAGOULA     CLEAR     44  43  96 CALM      30.30S

$$

COASTAL OBSERVATIONS
LAKE AND NEARSHORE STATIONS

STATION/POSITION TIME  TEMP    WIND        PRES    WAVE
                       AIR SEA DIR/SP/G            HT/PER
                 (UTC) (F)     (DEG/KT/KT) (MB)    (FT/S)
PASCAGOULA       0300   58      60/  5/  8 1025.2
WAVELAND YACHT   0300   58      80/  8/  8 1024.2
GRAND ISLE       0300   62 60   70/  8/ 10 1024.8
SOUTHWEST PASS   0300   68 73              1024.1
NEW CANAL        0300   60 54   80/  3/  7 1025.1
SHELL BEACH      0300   57 52   80/  6/  7 1024.8

OFFSHORE STATIONS

STATION/POSITION TIME  TEMP    WIND        PRES    WAVE
                       AIR SEA DIR/SP/G            HT/PER
                 (UTC) (F)     (DEG/KT/KT) (MB)    (FT/S)
64 S DAUPHIN ISL 0241   68 72  100/ 19/ 21 1025.4    5/ 7

$$




USA.gov is the U.S. government's official web portal to all federal, state and local government web resources and services.